TimeEST,TemperatureF,Dew PointF,Humidity,Sea Level PressureIn,VisibilityMPH,Wind Direction,Wind SpeedMPH,Gust SpeedMPH,PrecipitationIn,Events,Conditions,WindDirDegrees,DateUTC
12:52 AM,9.0,-6.0,51,30.37,10.0,West,13.8,19.6,N/A,,Clear,260,2014-01-08 05:52:00
1:52 AM,9.0,-5.1,53,30.39,10.0,West,10.4,20.7,N/A,,Clear,260,2014-01-08 06:52:00
2:52 AM,9.0,-5.1,53,30.42,10.0,West,12.7,20.7,N/A,,Clear,270,2014-01-08 07:52:00
3:52 AM,8.1,-5.1,55,30.42,10.0,West,9.2,19.6,N/A,,Clear,270,2014-01-08 08:52:00
4:52 AM,9.0,-5.1,53,30.43,10.0,West,9.2,-,N/A,,Clear,270,2014-01-08 09:52:00
5:52 AM,8.1,-5.1,55,30.45,10.0,West,8.1,-,N/A,,Clear,280,2014-01-08 10:52:00
6:52 AM,8.1,-5.1,55,30.46,10.0,West,8.1,-,N/A,,Clear,280,2014-01-08 11:52:00
7:52 AM,9.0,-4.0,56,30.49,10.0,West,10.4,-,N/A,,Clear,280,2014-01-08 12:52:00
8:52 AM,10.9,-2.9,54,30.53,10.0,West,12.7,-,N/A,,Clear,260,2014-01-08 13:52:00
9:52 AM,14.0,-2.9,47,30.54,10.0,West,6.9,-,N/A,,Clear,270,2014-01-08 14:52:00
10:52 AM,16.0,-2.0,45,30.53,10.0,West,6.9,-,N/A,,Clear,260,2014-01-08 15:52:00
11:52 AM,17.1,-0.9,45,30.48,10.0,SW,8.1,-,N/A,,Clear,230,2014-01-08 16:52:00
12:52 PM,19.9,-2.0,38,30.45,10.0,WNW,8.1,-,N/A,,Clear,300,2014-01-08 17:52:00
1:52 PM,21.0,1.0,42,30.45,10.0,SW,9.2,-,N/A,,Clear,220,2014-01-08 18:52:00
2:52 PM,23.0,1.0,39,30.45,10.0,WSW,8.1,-,N/A,,Clear,240,2014-01-08 19:52:00
3:52 PM,21.9,1.0,40,30.45,10.0,WSW,8.1,-,N/A,,Clear,250,2014-01-08 20:52:00
4:52 PM,21.0,1.9,44,30.47,10.0,West,8.1,-,N/A,,Clear,260,2014-01-08 21:52:00
5:52 PM,21.0,3.0,46,30.48,10.0,West,8.1,-,N/A,,Clear,260,2014-01-08 22:52:00
6:52 PM,21.0,3.0,46,30.50,10.0,West,9.2,-,N/A,,Clear,260,2014-01-08 23:52:00
7:52 PM,21.0,3.0,46,30.50,10.0,West,10.4,-,N/A,,Clear,260,2014-01-09 00:52:00
8:52 PM,19.9,3.9,50,30.50,10.0,West,9.2,-,N/A,,Clear,270,2014-01-09 01:52:00
9:52 PM,19.9,5.0,52,30.51,10.0,West,12.7,-,N/A,,Mostly Cloudy,260,2014-01-09 02:52:00
10:52 PM,19.9,5.0,52,30.51,10.0,West,9.2,-,N/A,,Mostly Cloudy,260,2014-01-09 03:52:00
11:52 PM,21.0,3.9,48,30.49,10.0,West,10.4,16.1,N/A,,Mostly Cloudy,280,2014-01-09 04:52:00